Weather History for KGIC - January, 2014

Change the Weather History Date:

Monday, January 6, 2014

  Actual Average (KLWS) Record (KLWS)
Temperature  
Mean Temperature 26 °F 34 °F  
Max Temperature 34 °F 40 °F 60 °F (1923)
Min Temperature 17 °F 29 °F -8 °F (1974)
Degree Days  
Heating Degree Days 40 31  
Month to date heating degree days 186  
Since 1 July heating degree days 2394  
Cooling Degree Days 0 0  
Month to date cooling degree days 0  
Year to date cooling degree days 0  
Moisture  
Dew Point 15 °F    
Average Humidity 68    
Maximum Humidity 83    
Minimum Humidity 45    
Precipitation  
Precipitation 0.00 in 0.03 in 2.32 in (1917)
Month to date precipitation 0.21  
Year to date precipitation 0.21  
Snow  
Snow 0.00 in 0.10 in 5.00 in (1965)
Month to date snowfall 0.6  
Since 1 July snowfall 5.9  
Snow Depth -    
Sea Level Pressure  
Sea Level Pressure 30.32 in    
Wind  
Wind Speed 3 mph (ESE)    
Max Wind Speed 12 mph    
Max Gust Speed -    
Visibility 9 miles    
Events      
T = Trace of Precipitation, MM = Missing Value Source: NWS Daily Summary

Daily Weather History Graph

Daily Weather History Graph

Search for Another Location

Airport or City:

Trip Planner

Search our weather history database for the weather conditions in past years. The results will help you decide how hot, cold, wet, or windy it might be!

Date:

Astronomy

Jan. 06, 2014 Rise Set
Actual Time 7:25 AM PST 4:15 PM PST
Civil Twilight 6:51 AM PST 4:49 PM PST
Nautical Twilight 6:14 AM PST 5:27 PM PST
Astronomical Twilight 5:38 AM PST 6:03 PM PST
Moon 10:22 AM PST (1/6) 11:16 PM PST (1/6)
Length of Visible Light 9h 57m
Length of Day
8h 49m
Waxing Crescent, 36% of the Moon is Illuminated
Jan 6
Waxing Crescent
Jan 7
First Quarter
Jan 15
Full
Jan 23
Last Quarter
Jan 30
New

Hourly Weather History & Observations

Time (PST) Temp. Windchill Dew Point Humidity Pressure Visibility Wind Dir Wind Speed Gust Speed Precip Events Conditions
12:15 AM 20.7 °F - 13.1 °F 73% 30.47 in 10.0 mi Calm Calm - N/A   Clear
12:35 AM 20.3 °F 13.8 °F 13.6 °F 75% 30.47 in 10.0 mi SSE 4.6 mph - N/A   Clear
12:55 AM 18.3 °F 8.2 °F 12.6 °F 78% 30.47 in 4.0 mi SW 8.1 mph - N/A   Clear
1:15 AM 18.0 °F 7.7 °F 12.6 °F 79% 30.47 in 10.0 mi SW 8.1 mph - N/A   Clear
1:35 AM 17.8 °F 8.5 °F 12.0 °F 78% 30.47 in 10.0 mi SW 6.9 mph - N/A   Clear
1:55 AM 17.6 °F 12.3 °F 12.4 °F 80% 30.47 in 10.0 mi WSW 3.5 mph - N/A   Clear
2:15 AM 18.5 °F 13.3 °F 12.2 °F 76% 30.48 in 10.0 mi SW 3.5 mph - N/A   Clear
2:35 AM 20.8 °F 16.0 °F 11.5 °F 67% 30.47 in 10.0 mi SE 3.5 mph - N/A   Clear
2:55 AM 21.0 °F - 11.1 °F 66% 30.47 in 10.0 mi Calm Calm - N/A   Clear
3:15 AM 19.4 °F - 10.6 °F 69% 30.47 in 7.0 mi Calm Calm - N/A   Clear
3:35 AM 18.3 °F - 10.8 °F 72% 30.46 in 10.0 mi Calm Calm - N/A   Clear
3:55 AM 18.3 °F 11.5 °F 10.8 °F 72% 30.46 in 10.0 mi SW 4.6 mph - N/A   Clear
4:15 AM 17.6 °F 9.3 °F 10.4 °F 73% 30.46 in 10.0 mi SW 5.8 mph - N/A   Clear
4:35 AM 18.5 °F 13.3 °F 10.4 °F 71% 30.46 in 10.0 mi SW 3.5 mph - N/A   Clear
4:55 AM 17.6 °F 8.2 °F 10.6 °F 74% 30.45 in 10.0 mi SW 6.9 mph - N/A   Clear
5:15 AM 17.6 °F - 10.2 °F 73% 30.43 in 10.0 mi Calm Calm - N/A   Clear
5:35 AM 17.8 °F - 10.4 °F 73% 30.43 in 10.0 mi Calm Calm - N/A   Clear
5:55 AM 18.7 °F - 11.1 °F 72% 30.43 in 10.0 mi Calm Calm - N/A   Clear
6:15 AM 19.2 °F 10.2 °F 11.7 °F 72% 30.42 in 10.0 mi SSE 6.9 mph - N/A   Clear
6:35 AM 19.4 °F 14.3 °F 12.6 °F 75% 30.42 in 10.0 mi SSE 3.5 mph - N/A   Clear
6:55 AM 19.6 °F - 13.3 °F 77% 30.42 in 10.0 mi Calm Calm - N/A   Clear
7:15 AM 20.1 °F 11.3 °F 14.0 °F 77% 30.41 in 10.0 mi SSE 6.9 mph - N/A   Clear
7:35 AM 20.1 °F - 14.9 °F 80% 30.42 in 10.0 mi Calm Calm - N/A   Clear
7:55 AM 20.3 °F 15.4 °F 15.8 °F 83% 30.41 in 5.0 mi East 3.5 mph - N/A   Clear
8:15 AM 21.2 °F 16.4 °F 14.9 °F 77% 30.41 in 5.0 mi NNE 3.5 mph - N/A   Clear
8:35 AM 21.2 °F 16.4 °F 15.3 °F 78% 30.42 in 10.0 mi NE 3.5 mph - N/A   Clear
8:55 AM 21.7 °F - 14.9 °F 75% 30.42 in 10.0 mi Calm Calm - N/A   Clear
9:15 AM 22.3 °F - 14.7 °F 73% 30.41 in 10.0 mi Calm Calm - N/A   Clear
9:35 AM 22.8 °F - 14.7 °F 71% 30.40 in 10.0 mi Calm Calm - N/A   Clear
9:55 AM 23.0 °F - 15.3 °F 72% 30.41 in 10.0 mi Calm Calm - N/A   Clear
10:15 AM 23.4 °F - 15.8 °F 73% 30.40 in 10.0 mi Calm Calm - N/A   Clear
10:35 AM 23.9 °F - 16.9 °F 75% 30.39 in 10.0 mi Calm Calm - N/A   Clear
10:55 AM 25.2 °F - 17.4 °F 72% 30.38 in 10.0 mi Calm Calm - N/A   Clear
11:15 AM 26.4 °F - 17.4 °F 69% 30.36 in 10.0 mi Calm Calm - N/A   Clear
11:35 AM 27.1 °F 23.2 °F 18.3 °F 69% 30.35 in 10.0 mi East 3.5 mph - N/A   Clear
11:55 AM 28.4 °F 23.3 °F 18.3 °F 66% 30.33 in 10.0 mi ENE 4.6 mph - N/A   Clear
12:15 PM 30.0 °F 24.1 °F 17.1 °F 59% 30.32 in 10.0 mi East 5.8 mph - N/A   Clear
12:35 PM 30.2 °F 25.4 °F 15.3 °F 54% 30.31 in 10.0 mi ENE 4.6 mph - N/A   Clear
12:55 PM 31.5 °F 25.8 °F 14.7 °F 50% 30.30 in 10.0 mi East 5.8 mph - N/A   Clear
1:15 PM 31.3 °F 25.6 °F 17.1 °F 56% 30.29 in 10.0 mi ENE 5.8 mph - N/A   Clear
1:35 PM 31.6 °F 26.0 °F 16.3 °F 53% 30.28 in 10.0 mi East 5.8 mph - N/A   Clear
1:55 PM 32.2 °F 25.0 °F 14.7 °F 49% 30.27 in 10.0 mi East 8.1 mph - N/A   Clear
2:15 PM 33.1 °F 25.5 °F 14.5 °F 47% 30.27 in 10.0 mi ESE 9.2 mph - N/A   Clear
2:35 PM 34.0 °F 29.8 °F 14.7 °F 45% 30.26 in 10.0 mi NE 4.6 mph - N/A   Clear
2:55 PM 33.1 °F 30.0 °F 15.6 °F 49% 30.25 in 10.0 mi NE 3.5 mph - N/A   Clear
3:15 PM 32.4 °F - 14.0 °F 47% 30.25 in 10.0 mi Calm Calm - N/A   Clear
3:35 PM 32.0 °F 27.5 °F 15.4 °F 51% 30.24 in 10.0 mi NNE 4.6 mph - N/A   Clear
3:55 PM 31.8 °F - 17.2 °F 55% 30.24 in 10.0 mi Calm Calm - N/A   Clear
4:15 PM 31.3 °F 27.9 °F 18.3 °F 59% 30.24 in 10.0 mi WSW 3.5 mph - N/A   Clear
4:35 PM 30.7 °F 26.0 °F 17.6 °F 58% 30.23 in 10.0 mi ESE 4.6 mph - N/A   Clear
4:55 PM 30.2 °F 20.8 °F 19.6 °F 65% 30.23 in 10.0 mi SE 11.5 mph - N/A   Clear
5:15 PM 29.5 °F - 19.9 °F 68% 30.23 in 10.0 mi Calm Calm - N/A   Clear
5:35 PM 28.0 °F 21.7 °F 20.5 °F 73% 30.21 in 10.0 mi ESE 5.8 mph - N/A   Clear
5:55 PM 27.3 °F - 21.2 °F 78% 30.22 in 7.0 mi Calm Calm - N/A   Clear
6:15 PM 27.1 °F - 19.4 °F 73% 30.21 in 5.0 mi Calm Calm - N/A   Clear
6:35 PM 27.7 °F - 18.3 °F 68% 30.21 in 5.0 mi Calm Calm - N/A   Clear
6:55 PM 26.2 °F - 18.0 °F 71% 30.20 in 5.0 mi Calm Calm - N/A   Clear
7:15 PM 26.4 °F - 16.5 °F 66% 30.20 in 5.0 mi Calm Calm - N/A   Clear
7:35 PM 26.8 °F 21.4 °F 16.5 °F 65% 30.20 in 5.0 mi ESE 4.6 mph - N/A   Clear
7:55 PM 25.7 °F - 17.1 °F 70% 30.20 in 5.0 mi Calm Calm - N/A   Clear
8:15 PM 24.6 °F - 16.2 °F 70% 30.19 in 7.0 mi Calm Calm - N/A   Clear
8:35 PM 25.5 °F - 16.2 °F 68% 30.19 in 5.0 mi Calm Calm - N/A   Clear
8:55 PM 24.8 °F - 15.8 °F 69% 30.18 in 5.0 mi Calm Calm - N/A   Clear
9:15 PM 25.3 °F - 15.6 °F 67% 30.18 in 5.0 mi Calm Calm - N/A   Clear
9:35 PM 24.3 °F - 16.2 °F 71% 30.17 in 7.0 mi Calm Calm - N/A   Clear
9:55 PM 26.6 °F - 16.0 °F 64% 30.17 in 10.0 mi Calm Calm - N/A   Clear
10:15 PM 28.9 °F 23.9 °F 16.2 °F 59% 30.17 in 10.0 mi ENE 4.6 mph - N/A   Clear
10:35 PM 27.9 °F 22.6 °F 17.4 °F 65% 30.17 in 10.0 mi East 4.6 mph - N/A   Clear
10:55 PM 26.2 °F 20.7 °F 17.8 °F 70% 30.17 in 10.0 mi ESE 4.6 mph - N/A   Clear
11:15 PM 25.3 °F 19.7 °F 18.3 °F 75% 30.16 in 10.0 mi East 4.6 mph - N/A   Clear
11:35 PM 25.0 °F - 18.3 °F 76% 30.16 in 10.0 mi Calm Calm - N/A   Clear
11:55 PM 24.1 °F - 18.0 °F 77% 30.15 in 10.0 mi Calm Calm - N/A   Clear